AirNav   Phillips 66 Aviation Fuel
 
 322 users online  

08M Carthage-Leake County Airport
Carthage, Mississippi, USA

GOING TO CARTHAGE?


FAA INFORMATION EFFECTIVE 11 OCTOBER 2018

Location

FAA Identifier: 08M
Lat/Long: 32-45-41.7000N / 089-31-49.4000W
32-45.695000N / 089-31.823333W
32.7615833 / -89.5303889
(estimated)
Elevation: 457 ft. / 139 m (estimated)
Variation: 02E (1985)
From city: 2 miles N of CARTHAGE, MS
Time zone: UTC -5 (UTC -6 during Standard Time)
Zip code: 39051

Airport Operations

Airport use: Open to the public
Activation date: 02/1964
Control tower: no
ARTCC: MEMPHIS CENTER
FSS: GREENWOOD FLIGHT SERVICE STATION
NOTAMs facility: GWO (NOTAM-D service available)
Attendance: UNATNDD
Wind indicator: lighted
Segmented circle: yes
Lights: DUSK-2200. AFT 2200 ACTVT MIRL RWY 17/35 - CTAF.
Beacon: white-green (lighted land airport)
Operates sunset to sunrise.

Airport Communications

CTAF: 122.9

Nearby radio navigation aids

VOR radial/distance  VOR name  Freq  Var
MHZr057/34.8MAGNOLIA VORTAC113.2001W

Airport Services

Fuel available: 100LL
FUEL AVAIL 24/7 WITH CREDIT CARD.
Parking: tiedowns
Airframe service: NONE
Powerplant service: NONE
Bottled oxygen: NONE
Bulk oxygen: NONE

Runway Information

Runway 17/35

Dimensions: 3000 x 75 ft. / 914 x 23 m
Surface: asphalt, in excellent condition
Weight bearing capacity: 
Single wheel: 20.0
Runway edge lights: medium intensity
RUNWAY 17  RUNWAY 35
Latitude: 32-45.941613N32-45.448365N
Longitude: 089-31.845990W089-31.799015W
Elevation: 457.0 ft.445.0 ft.
Gradient: 0.1%0.1%
Traffic pattern: leftleft
Runway heading: 173 magnetic, 175 true353 magnetic, 355 true
Markings: nonprecision, in fair conditionnonprecision, in fair condition
Touchdown point: yes, no lightsyes, no lights
Obstructions: 24 ft. trees, 930 ft. from runway, 200 ft. left of centerline, 30:1 slope to clear39 ft. tree, 1125 ft. from runway, 300 ft. right of centerline, 23:1 slope to clear

Airport Ownership and Management from official FAA records

Ownership: Publicly-owned
Owner: CITY OF CARTHAGE
212 MAIN ST
CARTHAGE, MS 39051
Phone 601-267-8322
JIMMY WALLACE, MAYOR.
Manager: TONY GORDON
212 MAIN ST
CARTHAGE, MS 39051
Phone 601-267-9327
CHAIRMAN OF ARPT ADZY COMMITTEE.

Airport Operational Statistics

Aircraft based on the field: 16
Single engine airplanes: 16
    
Aircraft operations: avg 88/week *
61% local general aviation
39% transient general aviation
* for 12-month period ending 22 March 2018

Instrument Procedures

There are no published instrument procedures at 08M.

Some nearby airports with instrument procedures:

KOSX - Kosciusko-Attala County Airport (20 nm N)
KMPE - Philadelphia Municipal Airport (21 nm E)
KLMS - Louisville Winston County Airport (33 nm NE)
19M - C A Moore Airport (33 nm NW)
KMBO - Bruce Campbell Field Airport (35 nm SW)
 
Loc | Ops | Rwys | IFR | FBO | Links
Com | Nav | Svcs | Stats | Notes


 
Area around 08M (Carthage-Leake County Airport)
 
Road maps at: MapQuest Bing Google
 
Aerial photo
WARNING: Photo may not be current or correct
Aerial photo of 08M (Carthage-Leake County Airport)
Do you have a better or more recent aerial photo of Carthage-Leake County Airport that you would like to share? If so, please send us your photo.

 
Sectional chart

 
Airport distance calculator
Flying to Carthage-Leake County Airport? Find the distance to fly.

From to 08M

Sunrise and sunset
Times for 21-Oct-2018
 Local
(UTC-5)
 Zulu
(UTC)
Morning civil twilight06:4311:43
Sunrise07:0812:08
Sunset18:1823:18
Evening civil twilight18:4323:43

Current date and time
Zulu (UTC)  21-Oct-2018 08:45:59
Local (UTC-5)  21-Oct-2018 03:45:59
 
METAR
KMBO 
35nm SW 
210835Z AUTO 00000KT 7SM CLR 08/08 A3021 RMK AO2 PWINO
KJAN 
39nm SW 
210754Z AUTO 00000KT 10SM CLR 10/09 A3021 RMK AO2 SLP227 T01000089
KHKS 
43nm SW 
210753Z AUTO 35003KT 10SM CLR 10/09 A3021 RMK AO2 SLP225 T01000094
K5A6 
43nm N 
210835Z AUTO 03007KT 10SM CLR 08/07 A3025 RMK AO2 T00800066
KMEI 
47nm SE 
210758Z AUTO 00000KT 10SM CLR 10/08 A3019 RMK AO2 SLP221 T01000083 TSNO
TAF
KJAN 
39nm SW 
210734Z 2108/2206 01003KT 4SM BR FEW002 FM211000 02008KT P6SM FEW250
KHKS 
43nm SW 
210739Z 2108/2206 00000KT P6SM FEW002 FM211000 01009KT P6SM FEW250
KMEI 
47nm SE 
210525Z 2106/2206 00000KT 5SM BR FEW002 FM210900 03010KT P6SM SKC
NOTAMs
Click for the latest NOTAMs
NOTAMs are issued by the DoD/FAA and will open in a separate window not controlled by AirNav.

 

 
 

FBO, Fuel Providers, and Aircraft Ground Support

  
 Business Name 
 
 Contact 
 
 Services / Description 
 
Fuel Prices
 
Comments
  
Carthage-Leake County Airport 601-267-9327
no information available

If you are affiliated with Carthage-Leake County Airport and would like to show here your services, contact info, web link, logo, and more, click here
100LL
AS $3.95 
 Updated 04-Oct-2018
 
   write
AS=Assisted/Self Service
Update Fuel Prices
 

Would you like to see your business listed on this page?

 If your business provides an interesting product or service to pilots, flight crews, aircraft, or users of the Carthage-Leake County Airport, you should consider listing it here.  To start the listing process, click on the button below
 
Add a business
 

Other Pages about Carthage-Leake County Airport

Update a link
 
Copyright © AirNav, LLC. All rights reserved. Privacy Policy  Contact